IRIDIUM 33 1 24946U 97051C 26255.09684403 .00000163 00000+0 50159-4 0 9994 2 24946 86.3881 313.4923 0009468 52.6963 307.5095 14.35176495517551 IRIDIUM 33 DEB 1 33773U 97051L 26255.10444237 .00000521 00000+0 14729-3 0 9993 2 33773 86.4000 304.7294 0009909 339.7807 20.3000 14.43759530922915 IRIDIUM 33 DEB 1 33775U 97051N 26255.13190014 .00000695 00000+0 20513-3 0 9999 2 33775 86.3601 292.7792 0011615 350.0829 27.9239 14.42185969920800 IRIDIUM 33 DEB 1 33776U 97051P 26255.18081242 .00000396 00000+0 12259-3 0 9993 2 33776 86.4073 325.9184 0015119 28.3895 0.9752 14.38627254920130 IRIDIUM 33 DEB 1 33777U 97051Q 26255.05089538 .00001893 00000+0 41378-3 0 9993 2 33777 86.3722 276.1442 0008706 63.8838 296.3265 14.57296025925123 IRIDIUM 33 DEB 1 33850U 97051T 26255.00831758 .00000531 00000+0 15326-3 0 9991 2 33850 86.3353 272.6075 0011188 357.8462 30.4171 14.42831498920924 IRIDIUM 33 DEB 1 33853U 97051W 26254.94077497 .00000965 00000+0 52973-3 0 9998 2 33853 85.9978 229.8904 0211743 117.3228 299.3595 13.99969610891672 IRIDIUM 33 DEB 1 33860U 97051AD 26255.05859242 .00003516 00000+0 56955-3 0 9994 2 33860 86.3755 265.8271 0011242 109.8330 304.2197 14.70959329927363 IRIDIUM 33 DEB 1 33862U 97051AF 26255.04764051 .00001803 00000+0 26553-3 0 9996 2 33862 86.4046 276.4524 0047491 195.8849 193.5511 14.74034047928458 IRIDIUM 33 DEB 1 33866U 97051AK 26255.21885902 .00001667 00000+0 63874-3 0 9993 2 33866 86.3053 337.2004 0110103 3.1449 25.2975 14.26783399907085 IRIDIUM 33 DEB 1 33870U 97051AP 26255.12555632 .00001109 00000+0 29861-3 0 9991 2 33870 86.3728 300.9718 0019927 0.7070 27.4401 14.47059692920890 IRIDIUM 33 DEB 1 33881U 97051BA 26254.72683287 .00005617 00000+0 10610-2 0 9995 2 33881 86.3883 347.3203 0051360 328.7171 191.6960 14.63436433914842 IRIDIUM 33 DEB 1 33884U 97051BD 26255.02874404 .00006091 00000+0 72187-3 0 9990 2 33884 86.3619 245.6200 0014836 77.1117 351.5293 14.84311751928930 IRIDIUM 33 DEB 1 33886U 97051BF 26255.12524476 .00000283 00000+0 90040-4 0 9990 2 33886 86.3838 312.1605 0016109 75.3931 314.1679 14.36317295919763 IRIDIUM 33 DEB 1 33887U 97051BG 26254.99407784 .00000273 00000+0 84523-4 0 9995 2 33887 86.2994 245.6092 0008383 72.7934 340.8263 14.37441180920900 IRIDIUM 33 DEB 1 33953U 97051BN 26255.10466924 .00001875 00000+0 40736-3 0 9990 2 33953 86.3820 294.9177 0013854 255.8055 133.1910 14.57535753922839 IRIDIUM 33 DEB 1 33960U 97051BV 26255.22712859 .00009178 00000+0 81456-3 0 9990 2 33960 86.2590 159.2928 0002355 95.3062 59.1781 14.96062911929447 IRIDIUM 33 DEB 1 33966U 97051CB 26255.06279426 .00000948 00000+0 23667-3 0 9992 2 33966 86.3881 288.6465 0008067 27.4515 1.7831 14.50576382924036 IRIDIUM 33 DEB 1 34071U 97051CE 26255.05091476 .00001218 00000+0 30558-3 0 9994 2 34071 86.3390 258.8934 0004919 279.0216 81.0432 14.50592877922958 IRIDIUM 33 DEB 1 34077U 97051CL 26254.52224355 .00003863 00000+0 65608-3 0 9997 2 34077 86.3813 290.8952 0010645 155.3261 328.7264 14.68915363923323 IRIDIUM 33 DEB 1 34079U 97051CN 26254.99063140 .00010610 00000+0 10594-2 0 9994 2 34079 86.3699 243.4185 0009980 90.6119 324.2835 14.91375013930413 IRIDIUM 33 DEB 1 34088U 97051CX 26255.06770541 .00024684 00000+0 15569-2 0 9996 2 34088 86.3597 263.1025 0000926 188.4710 241.5505 15.09000213928415 IRIDIUM 33 DEB 1 34091U 97051DA 26255.08121950 .00029480 00000+0 23647-2 0 9991 2 34091 86.3449 299.7704 0026389 46.5335 313.8085 14.99685239919424 IRIDIUM 33 DEB 1 34097U 97051DG 26255.20380419 .00001706 00000+0 55568-3 0 9997 2 34097 86.1955 240.4658 0079532 185.3970 174.6379 14.36395850910435 IRIDIUM 33 DEB 1 34145U 97051DY 26254.83494231 .00002096 00000+0 59888-3 0 9999 2 34145 86.2129 210.6779 0048927 273.1130 86.4473 14.44009706915772 IRIDIUM 33 DEB 1 34146U 97051DZ 26254.98808904 .00002172 00000+0 54708-3 0 9993 2 34146 86.2811 228.9013 0028193 38.4268 34.4337 14.50509641920667 IRIDIUM 33 DEB 1 34159U 97051EN 26255.04466436 .00000602 00000+0 18741-3 0 9998 2 34159 86.3474 291.6792 0030028 108.8813 251.5646 14.39075374918891 IRIDIUM 33 DEB 1 34350U 97051ES 26254.98658735 .00000755 00000+0 20603-3 0 9997 2 34350 86.3227 244.1545 0019277 317.4342 95.9656 14.46005044922416 IRIDIUM 33 DEB 1 34366U 97051FJ 26255.04780549 .00002269 00000+0 50657-3 0 9995 2 34366 86.3648 290.1924 0017192 302.9708 83.8947 14.56333728921570 IRIDIUM 33 DEB 1 34375U 97051FT 26254.95947058 .00000471 00000+0 20888-3 0 9990 2 34375 86.4238 72.4761 0100787 339.7078 151.0201 14.18436826905841 IRIDIUM 33 DEB 1 34376U 97051FU 26255.14146654 .00005427 00000+0 95950-3 0 9994 2 34376 86.2904 243.0348 0022192 323.4516 36.5183 14.67079349920106 IRIDIUM 33 DEB 1 34486U 97051GB 26254.73370536 .00027678 00000+0 15845-2 0 9994 2 34486 86.3752 244.0120 0006346 152.7679 22.0090 15.12493346930910 IRIDIUM 33 DEB 1 34487U 97051GC 26254.45369905 .00000396 00000+0 11067-3 0 9993 2 34487 86.3377 254.9229 0029028 311.3426 202.2986 14.43559094921821 IRIDIUM 33 DEB 1 34492U 97051GH 26254.37338081 .00008217 00000+0 26514-2 0 9993 2 34492 86.4698 223.9524 0180675 77.7628 72.4202 14.30150750889509 IRIDIUM 33 DEB 1 34497U 97051GN 26254.10066166 .00000839 00000+0 31799-3 0 9995 2 34497 86.2752 295.9943 0079237 178.6413 211.0024 14.28246801907707 IRIDIUM 33 DEB 1 34508U 97051GZ 26254.74876382 .00001670 00000+0 51181-3 0 9998 2 34508 86.3753 346.7028 0062316 357.8993 2.1934 14.40072089912361 IRIDIUM 33 DEB 1 34521U 97051HN 26254.77097551 .00002638 00000+0 47316-3 0 9999 2 34521 86.3725 269.9862 0005443 72.7175 287.4634 14.66402044924702 IRIDIUM 33 DEB 1 34525U 97051HS 26254.88141596 .00000607 00000+0 17360-3 0 9994 2 34525 86.3691 290.2211 0002111 262.3654 272.3889 14.43502255920274 IRIDIUM 33 DEB 1 34529U 97051HW 26254.77951206 .00000346 00000+0 10175-3 0 9990 2 34529 86.3584 278.9987 0006090 44.6612 315.5077 14.40930098920734 IRIDIUM 33 DEB 1 34538U 97051JF 26254.73964645 .00001177 00000+0 33660-3 0 9994 2 34538 86.2716 245.8106 0036195 137.5628 278.7011 14.43886028916946 IRIDIUM 33 DEB 1 34540U 97051JH 26254.80454375 .00006595 00000+0 85869-3 0 9996 2 34540 86.3141 182.2039 0012492 310.5912 103.1047 14.80432933930550 IRIDIUM 33 DEB 1 34648U 97051JZ 26254.72409652 .00001419 00000+0 63150-3 0 9993 2 34648 86.3992 171.4405 0165864 155.9380 204.9672 14.15149670888188 IRIDIUM 33 DEB 1 34651U 97051KC 26254.79166692 .00002664 00000+0 94866-3 0 9999 2 34651 86.2830 23.9109 0131414 44.8049 316.3665 14.29216459897923 IRIDIUM 33 DEB 1 34652U 97051KD 26254.35257913 .00002505 00000+0 46967-3 0 9992 2 34652 86.3309 218.3721 0030449 84.3948 67.8233 14.64085592924706 IRIDIUM 33 DEB 1 34690U 97051KM 26254.83286381 .00002130 00000+0 47533-3 0 9992 2 34690 86.3722 278.1864 0009926 157.1021 17.2734 14.56395550920672 IRIDIUM 33 DEB 1 34696U 97051KT 26254.96840337 .00019318 00000+0 23951-2 0 9992 2 34696 86.1769 258.3971 0045805 302.4194 85.8514 14.81817304906998 IRIDIUM 33 DEB 1 34765U 97051LJ 26252.34320691 .00000686 00000+0 20648-3 0 9994 2 34765 86.3336 276.5881 0017939 52.4953 5.0281 14.41092082915103 IRIDIUM 33 DEB 1 34833U 97051MH 26254.06958133 .00001360 00000+0 31827-3 0 9990 2 34833 86.3899 293.4901 0016794 259.7992 128.4727 14.53869747916702 IRIDIUM 33 DEB 1 34870U 97051MQ 26254.11584757 .00005996 00000+0 76566-3 0 9992 2 34870 86.3148 188.8051 0015003 333.6208 87.7553 14.81212759929374 IRIDIUM 33 DEB 1 34896U 97051MY 26255.19766617 .00002872 00000+0 48823-3 0 9991 2 34896 86.3319 203.7797 0026044 5.8498 59.6575 14.68581688916308 IRIDIUM 33 DEB 1 34926U 97051NF 26253.27604229 .00010021 00000+0 18481-2 0 9993 2 34926 86.1296 241.1836 0073087 93.7678 329.9063 14.63664113904198 IRIDIUM 33 DEB 1 34985U 97051NR 26254.57210381 .00000860 00000+0 25018-3 0 9999 2 34985 86.3678 300.4147 0022505 48.3820 105.5964 14.43003124911088 IRIDIUM 33 DEB 1 35051U 97051NX 26253.97586537 .00001225 00000+0 31984-3 0 9991 2 35051 86.3185 250.0614 0005601 258.3580 101.6995 14.48697650909366 IRIDIUM 33 DEB 1 35052U 97051NY 26252.76818104 .00000333 00000+0 10187-3 0 9997 2 35052 86.3245 264.2546 0009156 274.4861 85.5291 14.38785923911727 IRIDIUM 33 DEB 1 35297U 97051PM 26251.45813813 .00001143 00000+0 31397-3 0 9991 2 35297 86.3862 307.5701 0014108 336.0194 24.0349 14.46189285743233 IRIDIUM 33 DEB 1 35299U 97051PP 26255.02598852 .00001696 00000+0 49462-3 0 9998 2 35299 86.2830 273.9897 0051654 279.9303 108.8206 14.42850211902695 IRIDIUM 33 DEB 1 35480U 97051QA 26254.30778058 .00001196 00000+0 29782-3 0 9996 2 35480 86.3497 266.6117 0010904 275.0175 84.9785 14.50898364909826 IRIDIUM 33 DEB 1 35484U 97051QE 26255.18948360 .00047429 00000+0 19573-2 0 9997 2 35484 86.3412 221.8375 0012204 161.4879 198.6812 15.23778202661468 IRIDIUM 33 DEB 1 35488U 97051QJ 26253.50977345 .00005907 00000+0 63190-3 0 9990 2 35488 86.3299 175.0231 0024573 148.4901 211.7802 14.88342452923022 IRIDIUM 33 DEB 1 35616U 97051QN 26254.62774411 .00009049 00000+0 96724-3 0 9996 2 35616 86.3523 220.3774 0005597 321.8738 38.2091 14.88651934916269 IRIDIUM 33 DEB 1 35618U 97051QQ 26254.22918528 .00001008 00000+0 23682-3 0 9993 2 35618 86.3376 234.2142 0028087 177.7706 182.3631 14.53224862693500 IRIDIUM 33 DEB 1 35620U 97051QS 26254.84734498 .00007613 00000+0 20421-2 0 9991 2 35620 86.3827 101.7439 0129784 79.2944 282.2839 14.43117006638999 IRIDIUM 33 DEB 1 35622U 97051QU 26254.39224800 .00837429 00000+0 69950-2 0 9990 2 35622 86.1722 125.1205 0005917 169.8559 315.9857 15.67532132915083 IRIDIUM 33 DEB 1 35625U 97051QX 26252.80098529 .00002586 00000+0 89541-3 0 9991 2 35625 86.1836 263.8823 0104501 44.0263 77.7811 14.32296597699189 IRIDIUM 33 DEB 1 35628U 97051RA 26254.25655773 .00004001 00000+0 64432-3 0 9991 2 35628 86.3506 247.0816 0014029 106.0299 254.2464 14.71223399904499 IRIDIUM 33 DEB 1 35631U 97051RD 26254.00231234 .00000512 00000+0 13269-3 0 9995 2 35631 86.3609 263.6711 0014593 296.9664 92.4446 14.47893547911363 IRIDIUM 33 DEB 1 35680U 97051RJ 26252.77748933 .00001947 00000+0 75668-3 0 9994 2 35680 86.0968 261.2128 0148973 135.1619 350.4399 14.23454613645541 IRIDIUM 33 DEB 1 35744U 97051RX 26255.11845287 .00004176 00000+0 62653-3 0 9993 2 35744 86.3314 201.5339 0019790 342.0671 17.9846 14.74237736913554 IRIDIUM 33 DEB 1 35797U 97051SF 26254.16427994 .00008614 00000+0 89408-3 0 9994 2 35797 86.3369 203.9819 0006703 291.6913 68.3600 14.89830852913887 IRIDIUM 33 DEB 1 35806U 97051SQ 26249.31330424 .00002022 00000+0 41871-3 0 9996 2 35806 86.3381 262.5210 0011015 235.2177 124.7997 14.59800011902252 IRIDIUM 33 DEB 1 35809U 97051ST 26250.18460407 .00006036 00000+0 77767-3 0 9993 2 35809 86.3261 212.4915 0014245 42.2278 318.0038 14.80845514907748 IRIDIUM 33 DEB 1 35846U 97051SW 26254.57742514 .00000932 00000+0 26617-3 0 9990 2 35846 86.3738 302.3416 0017193 0.2051 359.9154 14.44066236752658 IRIDIUM 33 DEB 1 35848U 97051SY 26253.29983433 .00007421 00000+0 87687-3 0 9991 2 35848 86.3825 253.2904 0006330 359.5367 0.5850 14.84530287707124 IRIDIUM 33 DEB 1 35850U 97051TA 26255.17172627 .00007279 00000+0 85809-3 0 9993 2 35850 86.3468 219.1459 0007900 347.5804 12.5224 14.84619386754075 IRIDIUM 33 DEB 1 35915U 97051TY 26254.19500573 .00008580 00000+0 94277-3 0 9996 2 35915 86.3418 217.6396 0008834 343.8405 16.2537 14.87507208121289 IRIDIUM 33 DEB 1 35918U 97051UB 26252.50376250 .00002057 00000+0 49010-3 0 9993 2 35918 86.4035 319.4190 0024186 348.0053 75.4303 14.53167189891370 IRIDIUM 33 DEB 1 35929U 97051UN 26253.06672191 .00052815 00000+0 20925-2 0 9990 2 35929 86.3422 181.9643 0015337 90.7928 269.5075 15.25085809918848 IRIDIUM 33 DEB 1 36011U 97051US 26249.34559235 .00000627 00000+0 18447-3 0 9993 2 36011 86.3360 280.4244 0020482 63.1249 357.1923 14.42064579683968 IRIDIUM 33 DEB 1 36012U 97051UT 26254.27358918 .00005308 00000+0 18652-2 0 9995 2 36012 86.4405 197.3403 0222083 109.1434 253.3940 14.21874851693541 IRIDIUM 33 DEB 1 36028U 97051VK 26253.09846591 .00021747 00000+0 13791-2 0 9994 2 36028 86.3114 177.5606 0015490 134.5241 225.7264 15.08708147911993 IRIDIUM 33 DEB 1 36080U 97051VM 26253.26921644 .00001204 00000+0 32154-3 0 9995 2 36080 86.3136 249.5548 0016495 349.6876 10.3986 14.47549738513414 IRIDIUM 33 DEB 1 36083U 97051VQ 26254.31640029 .00000894 00000+0 25443-3 0 9997 2 36083 86.3376 276.7228 0027816 48.1897 312.1674 14.44067827893827 IRIDIUM 33 DEB 1 36390U 97051VU 26249.52545377 .00003655 00000+0 51546-3 0 9996 2 36390 86.2939 176.3251 0028309 326.4438 33.4987 14.76704764702107 IRIDIUM 33 DEB 1 36483U 97051VZ 26254.42033527 .00000907 00000+0 24574-3 0 9991 2 36483 86.3766 295.7071 0007082 313.2576 46.8035 14.46672415690873 IRIDIUM 33 DEB 1 36490U 97051WG 26254.73053059 .00007379 00000+0 92434-3 0 9995 2 36490 86.3582 246.5975 0004080 126.6815 233.4783 14.82115904905217 IRIDIUM 33 DEB 1 36493U 97051WK 26254.27137255 .00003450 00000+0 59152-3 0 9994 2 36493 86.3508 250.1968 0012484 124.7931 235.4460 14.68450382785144 IRIDIUM 33 DEB 1 37136U 97051XG 26251.18707863 .00000861 00000+0 32633-3 0 9992 2 37136 86.1720 218.9392 0074743 198.6623 161.1827 14.28474092683442 IRIDIUM 33 DEB 1 37548U 97051XH 26254.80428610 .00001611 00000+0 38372-3 0 9991 2 37548 86.3469 284.3537 0023521 3.6471 356.4902 14.53050322694958 IRIDIUM 33 DEB 1 37550U 97051XK 26252.33284485 .00004381 00000+0 71483-3 0 9997 2 37550 86.3705 263.5287 0000571 176.7099 183.4120 14.70751463903061 IRIDIUM 33 DEB 1 37562U 97051XX 26254.85986534 .00002208 00000+0 46663-3 0 9991 2 37562 86.3695 284.2619 0021015 260.1181 274.4300 14.58799931903077 IRIDIUM 33 DEB 1 37565U 97051YA 26244.29463030 .00001056 00000+0 25333-3 0 9993 2 37565 86.3434 255.0763 0010113 282.6567 77.3508 14.52555598696477 IRIDIUM 33 DEB 1 38017U 97051YD 26254.70353395 .00013241 00000+0 29555-2 0 9993 2 38017 86.3329 46.7459 0074652 270.0920 89.1733 14.54994219653644 IRIDIUM 33 DEB 1 38022U 97051YJ 26250.75520078 .00001663 00000+0 48599-3 0 9999 2 38022 86.2621 258.4133 0041534 238.7118 121.0013 14.42994717730719 IRIDIUM 33 DEB 1 38028U 97051YQ 26254.21956059 .00000592 00000+0 15706-3 0 9996 2 38028 86.3213 241.7225 0025584 300.5028 59.3649 14.46868659694340 IRIDIUM 33 DEB 1 38228U 97051ZC 26254.44966868 .00000361 00000+0 13554-3 0 9995 2 38228 86.2909 292.5076 0064730 34.3483 31.5718 14.27682210886724 IRIDIUM 33 DEB 1 38241U 97051ZR 26255.21552367 .00001708 00000+0 38071-3 0 9998 2 38241 86.3201 229.7542 0002655 152.2014 207.9336 14.56352725641791 IRIDIUM 33 DEB 1 38474U 97051AAB 26248.30062089 .00000884 00000+0 21427-3 0 9996 2 38474 86.3372 253.7660 0022510 274.0815 85.7817 14.51761042691848 IRIDIUM 33 DEB 1 38477U 97051AAE 26254.75514544 .00005217 00000+0 39214-2 0 9990 2 38477 86.4087 4.4541 0397997 164.7636 196.5931 13.62599120583939 IRIDIUM 33 DEB 1 39777U 97051AAJ 26250.85280404 .00004614 00000+0 89437-3 0 9999 2 39777 85.9567 43.6300 0055590 355.5335 4.5371 14.62084806641116 IRIDIUM 33 DEB 1 39778U 97051AAK 26254.52840301 .00001821 00000+0 40808-3 0 9992 2 39778 86.3721 284.6099 0007506 166.6157 193.5252 14.56125834646609 IRIDIUM 33 DEB 1 39781U 97051AAN 26253.46598544 .00002988 00000+0 10755-2 0 9999 2 39781 86.3806 145.6195 0166009 121.6334 51.7841 14.26007868119733 IRIDIUM 33 DEB 1 40996U 97051ABJ 26250.71153038 .00055838 00000+0 26352-2 0 9991 2 40996 86.3437 233.2818 0009905 108.7866 251.4452 15.19177188665421 IRIDIUM 33 DEB 1 40998U 97051ABL 26253.39580968 .00000823 00000+0 22580-3 0 9990 2 40998 86.3804 297.5529 0005233 247.7973 124.9574 14.45923915106060 IRIDIUM 33 DEB 1 46435U 97051ABN 26254.26801102 .00009581 00000+0 23602-2 0 9990 2 46435 86.2719 75.5009 0202237 100.0801 23.1832 14.40414166118324 IRIDIUM 33 DEB 1 46734U 97051ABR 26249.27443492 .00001384 00000+0 40057-3 0 9998 2 46734 86.2584 245.2183 0039366 164.2144 252.2692 14.43393979668687 IRIDIUM 33 DEB 1 46965U 97051ABX 26254.37168656 .00002024 00000+0 39851-3 0 9999 2 46965 86.3348 219.5743 0021226 113.2499 38.4241 14.61951395662490 IRIDIUM 33 DEB 1 46971U 97051ACD 26251.12637185 .00058748 00000+0 29133-2 0 9999 2 46971 86.3112 203.9900 0010170 69.6972 302.2384 15.17437417682896 IRIDIUM 33 DEB 1 46972U 97051ACE 26254.39326455 .00000990 00000+0 24156-3 0 9994 2 46972 86.3818 281.9314 0006555 273.2169 153.9862 14.51702021655275 IRIDIUM 33 DEB 1 46974U 97051ACG 26255.02052904 .00004560 00000+0 11326-2 0 9993 2 46974 86.3018 345.3954 0083887 358.4793 1.6142 14.49503615614614 IRIDIUM 33 DEB 1 46979U 97051ACM 26248.81219838 .00057352 00000+0 23678-2 0 9998 2 46979 86.3134 281.1039 0007714 340.3269 19.7677 15.23765769394466